Regional Weather Roundup
Issued by NWS

Home | Current Version | Previous Version | Text Only | Print | Product List | Glossary Off
Versions: 1 2 3 4 5 6 7 8 9 10 11 12 13 14 15 16 17 18 19 20 21 22 23 24 25 26 27 28 29 30 31 32 33 34 35 36 37 38 39 40 41 42 43 44 45 46 47 48 49 50

000
ASUS43 KLSX 211107
RWRMO

WEATHER SUMMARY FOR MISSOURI
NATIONAL WEATHER SERVICE SPRINGFIELD MO
600 AM CDT THU SEP 21 2017

NOTE: "FAIR" INDICATES FEW OR NO CLOUDS BELOW 12,000 FEET WITH NO
       SIGNIFICANT WEATHER AND/OR OBSTRUCTIONS TO VISIBILITY.
       CURRENT SKY AND/OR WEATHER CONDITIONS ARE NOT AVAILABLE FOR
       CHILLICOTHE AND FARMINGTON.

MOZ001>031-035>038-043-044-053-054-211200-
...NORTHERN AND WESTERN MISSOURI...

CITY           SKY/WX    TMP DP  RH WIND       PRES   REMARKS
KANSAS CTY INT PTCLDY    77  72  84 S10       29.88R
KANSAS C DTWN  CLEAR     79  72  79 S9        29.87S
LEE`S SUMMIT   CLEAR     76  72  87 S10       29.90R
ST JOSEPH      CLEAR     69  69 100 CALM      29.86R
CHILLICOTHE      N/A     76  73  91 SE3       29.91R
KIRKSVILLE     CLOUDY    74  70  87 S5        29.95R

$$
MOZ066>068-077>081-088>096-101>105-211200-
...SOUTHWEST MISSOURI...

CITY           SKY/WX    TMP DP  RH WIND       PRES   REMARKS
SPRINGFIELD    CLEAR     72  70  93 SE12      29.96S
JOPLIN         CLEAR     74  72  93 S7        29.93R

$$
MOZ032>034-039>042-045>050-055>058-069>072-211200-
...CENTRAL MISSOURI...

CITY           SKY/WX    TMP DP  RH WIND       PRES   REMARKS
COLUMBIA       CLEAR     72  70  93 S7        29.96R
JEFFERSON CITY CLEAR     76  69  79 SE5       29.95R
ROLLA          CLEAR     72  70  93 S8        30.00S
SEDALIA        CLOUDY    75  72  90 S7        29.95R
WHITEMAN AFB   CLOUDY    75  75 100 S6        29.91R
WARRENSBURG    CLEAR     72  68  88 S7        29.90S
OSAGE BEACH    CLEAR     72  70  93 SE6       29.97S

$$
MOZ051-052-059>065-211200-
...EAST CENTRAL MISSOURI...

CITY           SKY/WX    TMP DP  RH WIND       PRES   REMARKS
ST LOUIS INTL  CLOUDY    76  70  82 S5        29.99S
ST CHARLES     PTCLDY    69  68  96 E6        29.98R

$$
MOZ072>076-082>087-097>100-106>115-211200-
...SOUTH CENTRAL AND SOUTHEAST MISSOURI...

CITY           SKY/WX    TMP DP  RH WIND       PRES   REMARKS
CAPE GIRARDEAU CLEAR     71  69  93 SE3       30.02R
FARMINGTON     CLEAR     68  67  96 CALM      30.04R
POPLAR BLUFF   CLEAR     66  66 100 CALM      30.01S FOG
WEST PLAINS    CLEAR     70  68  93 CALM      30.04R FOG

$$



USA.gov is the U.S. government's official web portal to all federal, state and local government web resources and services.